Weather History for KCQM - June, 2013

Change the Weather History Date:

Friday, June 14, 2013

  Actual Average Record
Temperature  
Mean Temperature 58 °F -  
Max Temperature 73 °F 68 °F 86 °F (2007)
Min Temperature 44 °F 45 °F 33 °F (1997)
Degree Days  
Heating Degree Days 6    
Growing Degree Days 8 (Base 50)    
Moisture  
Dew Point 47 °F    
Average Humidity 64    
Maximum Humidity 93    
Minimum Humidity 41    
Precipitation  
Precipitation 0.00 in - - ()
Sea Level Pressure  
Sea Level Pressure 30.05 in    
Wind  
Wind Speed 4 mph (SE)    
Max Wind Speed 15 mph    
Max Gust Speed 22 mph    
Visibility 10 miles    
Events Rain , Thunderstorm    
Averages and records for this station are not official NWS values.
T = Trace of Precipitation, MM = Missing Value Source: NWS Daily Summary

Daily Weather History Graph

Daily Weather History Graph

Search for Another Location

Airport or City:

Trip Planner

Search our weather history database for the weather conditions in past years. The results will help you decide how hot, cold, wet, or windy it might be!

Date:

Astronomy

Jun. 14, 2013 Rise Set
Actual Time 5:11 AM CDT 9:10 PM CDT
Civil Twilight 4:30 AM CDT 9:51 PM CDT
Nautical Twilight 3:33 AM CDT 10:48 PM CDT
Astronomical Twilight 2:01 AM CDT 12:21 AM CDT
Moon 11:09 AM CDT (6/14) No Moon Set
Length of Visible Light 17h 21m
Length of Day
15h 59m
Waxing Crescent, 30% of the Moon is Illuminated
Jun 14
Waxing Crescent
Jun 16
First Quarter
Jun 23
Full
Jun 29
Last Quarter
Jul 8
New

Hourly Weather History & Observations

Time (CDT) Temp. Windchill Dew Point Humidity Pressure Visibility Wind Dir Wind Speed Gust Speed Precip Events Conditions
12:17 AM 53.6 °F - 46.4 °F 77% 30.13 in 10.0 mi Calm Calm - N/A   Clear
12:37 AM 53.6 °F - 44.6 °F 72% 30.13 in 10.0 mi East 3.5 mph - N/A   Clear
12:56 AM 53.6 °F - 44.6 °F 72% 30.13 in 10.0 mi Calm Calm - N/A   Clear
1:17 AM 50.0 °F - 44.6 °F 82% 30.12 in 10.0 mi Calm Calm - N/A   Clear
1:36 AM 48.2 °F - 44.6 °F 87% 30.13 in 10.0 mi Calm Calm - N/A   Clear
1:57 AM 46.4 °F - 42.8 °F 87% 30.13 in 10.0 mi Calm Calm - N/A   Clear
2:17 AM 44.6 °F - 42.8 °F 93% 30.13 in 10.0 mi Calm Calm - N/A   Clear
2:36 AM 44.6 °F - 42.8 °F 93% 30.13 in 10.0 mi Calm Calm - N/A   Clear
2:57 AM 46.4 °F - 42.8 °F 87% 30.14 in 10.0 mi Calm Calm - N/A   Clear
3:17 AM 44.6 °F - 42.8 °F 93% 30.13 in 10.0 mi Calm Calm - N/A   Clear
3:36 AM 44.6 °F - 42.8 °F 93% 30.13 in 10.0 mi Calm Calm - N/A   Clear
3:57 AM 44.6 °F - 42.8 °F 93% 30.14 in 10.0 mi Calm Calm - N/A   Clear
4:17 AM 44.6 °F 43.1 °F 42.8 °F 93% 30.12 in 10.0 mi ENE 3.5 mph - N/A   Clear
4:36 AM 44.6 °F 43.1 °F 42.8 °F 93% 30.12 in 10.0 mi East 3.5 mph - N/A   Clear
4:57 AM 46.4 °F - 44.6 °F 93% 30.12 in 10.0 mi Calm Calm - N/A   Clear
5:15 AM 44.6 °F - 42.8 °F 93% 30.11 in 10.0 mi Calm Calm - N/A   Clear
5:36 AM 46.4 °F 44.3 °F 44.6 °F 93% 30.10 in 10.0 mi ENE 4.6 mph - N/A   Clear
5:57 AM 46.4 °F - 44.6 °F 93% 30.11 in 10.0 mi Calm Calm - N/A   Clear
6:17 AM 46.4 °F - 44.6 °F 93% 30.12 in 10.0 mi Calm Calm - N/A   Clear
6:36 AM 48.2 °F - 46.4 °F 93% 30.12 in 10.0 mi Calm Calm - N/A   Clear
6:57 AM 51.8 °F - 46.4 °F 82% 30.12 in 10.0 mi East 3.5 mph - N/A   Clear
7:16 AM 53.6 °F - 48.2 °F 82% 30.11 in 10.0 mi East 3.5 mph - N/A   Clear
7:36 AM 57.2 °F - 50.0 °F 77% 30.12 in 10.0 mi Calm Calm - N/A   Clear
7:57 AM 59.0 °F - 50.0 °F 72% 30.12 in 10.0 mi SSE 6.9 mph - N/A   Clear
8:16 AM 60.8 °F - 50.0 °F 68% 30.12 in 10.0 mi SSE 5.8 mph - N/A   Clear
8:37 AM 62.6 °F - 51.8 °F 68% 30.13 in 10.0 mi South 8.1 mph - N/A   Clear
8:56 AM 64.4 °F - 50.0 °F 59% 30.13 in 10.0 mi SSE 10.4 mph 17.3 mph N/A   Clear
9:17 AM 64.4 °F - 50.0 °F 59% 30.13 in 10.0 mi South 5.8 mph 16.1 mph N/A   Clear
9:37 AM 66.2 °F - 48.2 °F 52% 30.13 in 10.0 mi SSE 11.5 mph 16.1 mph N/A   Clear
9:56 AM 66.2 °F - 48.2 °F 52% 30.13 in 10.0 mi SSE 10.4 mph 18.4 mph N/A   Clear
10:17 AM 66.2 °F - 48.2 °F 52% 30.11 in 10.0 mi SSE 11.5 mph 20.7 mph N/A   Clear
10:36 AM 68.0 °F - 50.0 °F 52% 30.10 in 10.0 mi SSE 10.4 mph - N/A   Clear
10:56 AM 69.8 °F - 50.0 °F 49% 30.09 in 10.0 mi South 5.8 mph - N/A   Clear
11:17 AM 69.8 °F - 50.0 °F 49% 30.09 in 10.0 mi SSE 10.4 mph - N/A   Clear
11:36 AM 69.8 °F - 48.2 °F 46% 30.08 in 10.0 mi South 11.5 mph - N/A   Clear
11:56 AM 71.6 °F - 48.2 °F 43% 30.07 in 10.0 mi South 8.1 mph 16.1 mph N/A   Clear
12:17 PM 71.6 °F - 48.2 °F 43% 30.07 in 10.0 mi South 13.8 mph - N/A   Clear
12:36 PM 71.6 °F - 48.2 °F 43% 30.06 in 10.0 mi SSE 11.5 mph 19.6 mph N/A   Clear
12:56 PM 73.4 °F - 48.2 °F 41% 30.05 in 10.0 mi SE 10.4 mph 19.6 mph N/A   Clear
1:17 PM 73.4 °F - 48.2 °F 41% 30.05 in 10.0 mi SE 11.5 mph 20.7 mph N/A   Clear
1:36 PM 73.4 °F - 48.2 °F 41% 30.05 in 10.0 mi SE 15.0 mph 21.9 mph N/A   Clear
1:56 PM 71.6 °F - 48.2 °F 43% 30.04 in 10.0 mi SSE 12.7 mph 18.4 mph N/A   Clear
2:17 PM 71.6 °F - 48.2 °F 43% 30.03 in 10.0 mi SSE 9.2 mph 17.3 mph N/A   Clear
2:36 PM 73.4 °F - 48.2 °F 41% 30.01 in 10.0 mi SSE 12.7 mph 17.3 mph N/A   Clear
2:57 PM 71.6 °F - 46.4 °F 41% 29.99 in 10.0 mi SE 9.2 mph - N/A   Clear
3:16 PM 71.6 °F - 48.2 °F 43% 29.98 in 10.0 mi ESE 6.9 mph - N/A   Clear
3:36 PM 73.4 °F - 48.2 °F 41% 29.98 in 10.0 mi SSE 9.2 mph - N/A   Clear
3:57 PM 71.6 °F - 48.2 °F 43% 30.00 in 10.0 mi SSE 11.5 mph 18.4 mph N/A   Clear
4:16 PM 71.6 °F - 48.2 °F 43% 30.01 in 10.0 mi SSE 5.8 mph - N/A   Clear
4:36 PM 69.8 °F - 48.2 °F 46% 29.98 in 10.0 mi SE 5.8 mph - N/A   Clear
4:56 PM 69.8 °F - 51.8 °F 53% 29.98 in 10.0 mi SE 9.2 mph - N/A Rain Light Rain
5:16 PM 64.4 °F - 53.6 °F 68% 29.98 in 10.0 mi SE 4.6 mph - N/A Rain Light Rain
5:37 PM 66.2 °F - 53.6 °F 64% 29.98 in 10.0 mi Calm Calm - N/A   Scattered Clouds
5:56 PM 66.2 °F - 53.6 °F 64% 29.98 in 10.0 mi ESE 4.6 mph - N/A   Scattered Clouds
6:16 PM 68.0 °F - 53.6 °F 60% 29.97 in 10.0 mi East 4.6 mph - N/A   Clear
6:37 PM 68.0 °F - 53.6 °F 60% 29.98 in 10.0 mi SE 5.8 mph - N/A   Scattered Clouds
6:56 PM 68.0 °F - 53.6 °F 60% 29.97 in 10.0 mi ESE 5.8 mph - N/A   Scattered Clouds
7:16 PM 69.8 °F - 53.6 °F 56% 29.97 in 10.0 mi SE 6.9 mph - N/A   Scattered Clouds
7:37 PM 68.0 °F - 51.8 °F 56% 29.96 in 10.0 mi SE 11.5 mph 17.3 mph N/A   Scattered Clouds
7:56 PM 66.2 °F - 50.0 °F 56% 29.97 in 10.0 mi ESE 5.8 mph - N/A   Mostly Cloudy
8:16 PM 66.2 °F - 48.2 °F 52% 29.97 in 10.0 mi ESE 3.5 mph - N/A   Overcast
8:37 PM 64.4 °F - 46.4 °F 52% 29.96 in 10.0 mi ESE 4.6 mph - N/A   Overcast
8:56 PM 62.6 °F - 44.6 °F 52% 29.96 in 10.0 mi ESE 4.6 mph - N/A   Mostly Cloudy
9:17 PM 60.8 °F - 42.8 °F 52% 29.95 in 10.0 mi ESE 3.5 mph - N/A   Scattered Clouds
9:36 PM 59.0 °F - 44.6 °F 59% 29.96 in 10.0 mi Calm Calm - N/A   Clear
9:56 PM 59.0 °F - 44.6 °F 59% 29.96 in 10.0 mi Calm Calm - N/A   Clear
10:17 PM 59.0 °F - 44.6 °F 59% 29.95 in 10.0 mi SE 3.5 mph - N/A   Mostly Cloudy
10:36 PM 59.0 °F - 42.8 °F 55% 29.95 in 10.0 mi SE 9.2 mph - N/A   Mostly Cloudy
10:56 PM 57.2 °F - 41.0 °F 55% 29.95 in 10.0 mi SE 6.9 mph - N/A   Mostly Cloudy
11:16 PM 57.2 °F - 41.0 °F 55% 29.94 in 10.0 mi SE 6.9 mph - N/A   Mostly Cloudy
11:36 PM 57.2 °F - 39.2 °F 51% 29.93 in 10.0 mi SE 6.9 mph - N/A Thunderstorm Overcast
11:57 PM 57.2 °F - 39.2 °F 51% 29.93 in 10.0 mi SE 5.8 mph - N/A   Mostly Cloudy